| time (UTC) | temp C | wind direction | speed KPH | gust KPH | rain 1hr cm | rain 24hr cm | rain mn cm | humidity % | barometer mb |
| 20260504201547 | 23 | 241 | 6.4 | 25.7 | 0.00 | 0.00 | 0.00 | 37 | 1011.1 |
| 20260504200039 | 23 | 0 | 3.2 | 33.8 | 0.00 | 0.00 | 0.00 | 39 | 1011.2 |
| 20260504194600 | 22 | 176 | 11.3 | 25.7 | 0.00 | 0.00 | 0.00 | 38 | 1011.5 |
| 20260504193044 | 22 | 225 | 12.9 | 32.2 | 0.00 | 0.00 | 0.00 | 36 | 1011.7 |
| 20260504191548 | 22 | 229 | 11.3 | 33.8 | 0.00 | 0.00 | 0.00 | 37 | 1012.1 |
| 20260504190055 | 22 | 207 | 8.0 | 37.0 | 0.00 | 0.00 | 0.00 | 37 | 1012.1 |
| 20260504184541 | 22 | 217 | 9.7 | 24.1 | 0.00 | 0.00 | 0.00 | 38 | 1012.2 |
| 20260504183035 | 22 | 179 | 8.0 | 19.3 | 0.00 | 0.00 | 0.00 | 39 | 1012.4 |
| 20260504181546 | 22 | 221 | 9.7 | 20.9 | 0.00 | 0.00 | 0.00 | 38 | 1012.7 |
| 20260504180114 | 21 | 286 | 8.0 | 24.1 | 0.00 | 0.00 | 0.00 | 36 | 1012.7 |
| 20260504174542 | 21 | 206 | 4.8 | 20.9 | 0.00 | 0.00 | 0.00 | 36 | 1012.9 |
| 20260504173044 | 21 | 236 | 4.8 | 17.7 | 0.00 | 0.00 | 0.00 | 36 | 1013.1 |
| 20260504171539 | 21 | 244 | 6.4 | 20.9 | 0.00 | 0.00 | 0.00 | 40 | 1013.0 |
| 20260504081545 | 8 | 0 | 0.0 | 4.8 | 0.00 | 0.00 | 0.00 | 85 | 1015.8 |
| 20260504050105 | 3 | 0 | 0.0 | 0.0 | 0.00 | 0.00 | 0.00 | 85 | 1015.8 |
| 20260504044539 | 3 | 0 | 0.0 | 0.0 | 0.00 | 0.00 | 0.00 | 84 | 1015.9 |
| 20260504043045 | 3 | 0 | 0.0 | 0.0 | 0.00 | 0.00 | 0.00 | 82 | 1015.8 |
| 20260504041543 | 4 | 0 | 0.0 | 0.0 | 0.00 | 0.00 | 0.00 | 81 | 1015.7 |
| 20260504040044 | 4 | 0 | 0.0 | 0.0 | 0.00 | 0.00 | 0.00 | 81 | 1015.5 |
| 20260504034549 | 4 | 0 | 0.0 | 0.0 | 0.00 | 0.00 | 0.00 | 79 | 1015.5 |
| 20260504033044 | 5 | 0 | 0.0 | 1.6 | 0.00 | 0.00 | 0.00 | 79 | 1015.4 |
| 20260504031556 | 4 | 0 | 0.0 | 1.6 | 0.00 | 0.00 | 0.00 | 79 | 1015.3 |
| 20260504030045 | 5 | 0 | 0.0 | 0.0 | 0.00 | 0.00 | 0.00 | 79 | 1015.3 |
| 20260504024544 | 5 | 0 | 0.0 | 0.0 | 0.00 | 0.00 | 0.00 | 79 | 1015.2 |
| 20260504023043 | 5 | 0 | 0.0 | 0.0 | 0.00 | 0.00 | 0.00 | 78 | 1015.3 |
| 20260504021541 | 5 | 0 | 0.0 | 1.6 | 0.00 | 0.00 | 0.00 | 77 | 1015.2 |
| 20260504020041 | 5 | 0 | 0.0 | 0.0 | 0.00 | 0.00 | 0.00 | 76 | 1015.2 |
| 20260504014546 | 6 | 0 | 0.0 | 0.0 | 0.00 | 0.00 | 0.00 | 74 | 1015.2 |
| 20260504013046 | 6 | 0 | 0.0 | 0.0 | 0.00 | 0.00 | 0.00 | 74 | 1015.1 |
| 20260504011546 | 7 | 0 | 0.0 | 0.0 | 0.00 | 0.00 | 0.00 | 70 | 1015.1 |
| 20260504010046 | 7 | 0 | 0.0 | 0.0 | 0.00 | 0.00 | 0.00 | 67 | 1015.0 |
| 20260504004542 | 8 | 0 | 0.0 | 0.0 | 0.00 | 0.00 | 0.00 | 64 | 1014.7 |
| 20260504003045 | 10 | 0 | 0.0 | 0.0 | 0.00 | 0.00 | 0.00 | 60 | 1014.5 |
| 20260504001552 | 11 | 0 | 0.0 | 0.0 | 0.00 | 0.00 | 0.00 | 55 | 1014.5 |
| 20260504000045 | 12 | 0 | 0.0 | 0.0 | 0.00 | 0.00 | 0.00 | 50 | 1014.2 |
| 20260503234544 | 13 | 0 | 0.0 | 3.2 | 0.00 | 0.00 | 0.00 | 42 | 1014.1 |
| 20260503233042 | 14 | 0 | 0.0 | 8.0 | 0.00 | 0.00 | 0.00 | 40 | 1014.0 |
| 20260503231547 | 15 | 207 | 0.0 | 6.4 | 0.00 | 0.00 | 0.00 | 38 | 1014.1 |
| 20260503230039 | 15 | 182 | 0.0 | 17.7 | 0.00 | 0.00 | 0.00 | 36 | 1014.1 |
| 20260503224539 | 15 | 229 | 3.2 | 12.9 | 0.00 | 0.00 | 0.00 | 36 | 1014.0 |
| 20260503223045 | 15 | 325 | 3.2 | 12.9 | 0.00 | 0.00 | 0.00 | 36 | 1014.0 |
| 20260503221540 | 15 | 178 | 4.8 | 17.7 | 0.00 | 0.00 | 0.00 | 36 | 1014.2 |
| 20260503220043 | 15 | 0 | 4.8 | 19.3 | 0.00 | 0.00 | 0.00 | 35 | 1014.1 |
| 20260503214548 | 15 | 360 | 6.4 | 22.5 | 0.00 | 0.00 | 0.00 | 37 | 1014.2 |
| 20260503213101 | 15 | 283 | 4.8 | 12.9 | 0.00 | 0.00 | 0.00 | 37 | 1014.1 |
| 20260503211612 | 15 | 327 | 4.8 | 17.7 | 0.00 | 0.00 | 0.00 | 37 | 1014.0 |
| 20260503210043 | 15 | 219 | 4.8 | 25.7 | 0.00 | 0.00 | 0.00 | 39 | 1014.1 |
| 20260503204559 | 15 | 331 | 4.8 | 27.4 | 0.00 | 0.00 | 0.00 | 38 | 1014.1 |
| 20260503203042 | 15 | 139 | 9.7 | 35.4 | 0.00 | 0.00 | 0.00 | 39 | 1014.3 |